When you browse on this site, cookies collect data to enhance your experience and personalize the content and advertising you see.
Visit our Privacy Policy to learn more. By continuing to use the site, you agree to this use of cookies and data.
  • In Romania
  • List of Countries
  • For 7 days
  • Water Temperature
  • Satellite Maps
  • Weather Map
  • Weather Widgets
  • user-avatar
    Login

    Hourly Weather Caracas

    Today, 16 February, Saturday

    Time Temperature Precipitation Wind Pressure Humidity
    00:00 +17°C° 0 mm 2 mps 649 mmHg 88%
    01:00 +17°C° 0 mm 2 mps 649 mmHg 87%
    02:00 +16°C° 0 mm 2 mps 649 mmHg 85%
    03:00 +16°C° 0 mm 2 mps 649 mmHg 84%
    04:00 +16°C° 0 mm 2 mps 649 mmHg 83%
    05:00 +16°C° 0 mm 2 mps 649 mmHg 81%
    06:00 +17°C° 0 mm 2 mps 649 mmHg 79%
    07:00 +17°C° 0 mm 2 mps 650 mmHg 77%
    08:00 +18°C° 0 mm 2 mps 650 mmHg 75%
    09:00 +20°C° 0 mm 2 mps 651 mmHg 68%
    10:00 +24°C° 0 mm 2 mps 652 mmHg 61%
    11:00 +26°C° 0 mm 3 mps 652 mmHg 54%
    12:00 +26°C° 0.1 mm 3 mps 652 mmHg 52%
    13:00 +27°C° 0.1 mm 3 mps 651 mmHg 51%
    14:00 +28°C° 0.1 mm 4 mps 651 mmHg 50%
    15:00 +27°C° 0.1 mm 4 mps 650 mmHg 52%
    16:00 +26°C° 0.1 mm 4 mps 649 mmHg 54%
    17:00 +26°C° 0.1 mm 4 mps 649 mmHg 55%
    18:00 +23°C° 0.1 mm 4 mps 649 mmHg 65%
    19:00 +21°C° 0.1 mm 3 mps 648 mmHg 75%
    20:00 +19°C° 0.1 mm 3 mps 648 mmHg 84%
    21:00 +18°C° 0 mm 3 mps 649 mmHg 87%
    22:00 +18°C° 0 mm 3 mps 649 mmHg 90%
    23:00 +17°C° 0 mm 3 mps 649 mmHg 93%

    Tomorrow, 17 February, Sunday

    Time Temperature Precipitation Wind Pressure Humidity
    00:00 +17°C° 0 mm 3 mps 649 mmHg 94%
    01:00 +17°C° 0 mm 2 mps 649 mmHg 94%
    02:00 +17°C° 0 mm 2 mps 649 mmHg 95%
    03:00 +17°C° 0 mm 2 mps 649 mmHg 95%
    04:00 +17°C° 0 mm 2 mps 649 mmHg 94%
    05:00 +16°C° 0 mm 2 mps 649 mmHg 94%
    06:00 +17°C° 0 mm 2 mps 649 mmHg 90%
    07:00 +17°C° 0 mm 2 mps 650 mmHg 86%
    08:00 +18°C° 0 mm 2 mps 650 mmHg 82%
    09:00 +20°C° 0 mm 2 mps 651 mmHg 72%
    10:00 +23°C° 0 mm 2 mps 652 mmHg 62%
    11:00 +25°C° 0 mm 3 mps 653 mmHg 52%
    12:00 +26°C° 0 mm 3 mps 653 mmHg 49%
    13:00 +27°C° 0 mm 4 mps 652 mmHg 46%
    14:00 +28°C° 0 mm 4 mps 652 mmHg 43%
    15:00 +27°C° 0 mm 4 mps 651 mmHg 47%
    16:00 +26°C° 0 mm 4 mps 650 mmHg 51%
    17:00 +25°C° 0 mm 4 mps 650 mmHg 55%
    18:00 +22°C° 0 mm 4 mps 649 mmHg 66%
    19:00 +20°C° 0 mm 4 mps 649 mmHg 77%
    20:00 +18°C° 0 mm 3 mps 649 mmHg 89%
    21:00 +17°C° 0.1 mm 3 mps 650 mmHg 90%
    22:00 +17°C° 0.1 mm 3 mps 650 mmHg 92%
    23:00 +17°C° 0.1 mm 3 mps 650 mmHg 93%

    Day after tomorrow, 18 February, Monday

    Time Temperature Precipitation Wind Pressure Humidity
    00:00 +17°C° 0.2 mm 3 mps 650 mmHg 93%
    01:00 +17°C° 0.2 mm 3 mps 650 mmHg 94%
    02:00 +17°C° 0.2 mm 3 mps 650 mmHg 94%
    03:00 +17°C° 0.3 mm 3 mps 649 mmHg 94%
    04:00 +17°C° 0.3 mm 3 mps 649 mmHg 94%
    05:00 +17°C° 0.3 mm 4 mps 649 mmHg 94%
    06:00 +17°C° 0.3 mm 4 mps 650 mmHg 94%
    07:00 +17°C° 0.3 mm 4 mps 650 mmHg 93%
    08:00 +17°C° 0.3 mm 4 mps 651 mmHg 93%
    09:00 +17°C° 0.1 mm 4 mps 651 mmHg 89%
    10:00 +18°C° 0.1 mm 4 mps 652 mmHg 85%
    11:00 +19°C° 0.1 mm 4 mps 652 mmHg 82%
    12:00 +19°C° 0.1 mm 4 mps 652 mmHg 79%
    13:00 +20°C° 0.1 mm 4 mps 651 mmHg 77%
    14:00 +20°C° 0.1 mm 4 mps 651 mmHg 74%
    15:00 +20°C° 0 mm 4 mps 650 mmHg 73%
    16:00 +20°C° 0 mm 4 mps 650 mmHg 71%
    17:00 +21°C° 0 mm 4 mps 650 mmHg 70%
    18:00 +19°C° 0 mm 4 mps 650 mmHg 77%
    19:00 +18°C° 0 mm 4 mps 650 mmHg 85%
    20:00 +17°C° 0 mm 3 mps 650 mmHg 92%
    21:00 +16°C° 0 mm 3 mps 650 mmHg 93%
    22:00 +16°C° 0 mm 3 mps 650 mmHg 94%
    23:00 +16°C° 0 mm 3 mps 651 mmHg 95%

    19 February, Tuesday

    Time Temperature Precipitation Wind Pressure Humidity
    00:00 +16°C° 0.2 mm 3 mps 650 mmHg 95%
    01:00 +16°C° 0.2 mm 3 mps 650 mmHg 95%
    02:00 +16°C° 0.2 mm 3 mps 650 mmHg 95%
    03:00 +16°C° 0.3 mm 3 mps 650 mmHg 95%
    04:00 +16°C° 0.3 mm 3 mps 649 mmHg 95%
    05:00 +16°C° 0.3 mm 3 mps 649 mmHg 95%
    06:00 +16°C° 0.3 mm 3 mps 650 mmHg 94%
    07:00 +15°C° 0.3 mm 4 mps 650 mmHg 93%
    08:00 +15°C° 0.3 mm 4 mps 651 mmHg 92%
    09:00 +17°C° 0.1 mm 4 mps 651 mmHg 91%
    10:00 +17°C° 0.1 mm 4 mps 651 mmHg 89%
    11:00 +17°C° 0.1 mm 4 mps 652 mmHg 87%
    12:00 +18°C° 0.1 mm 4 mps 651 mmHg 83%
    13:00 +19°C° 0.1 mm 3 mps 650 mmHg 79%
    14:00 +20°C° 0.1 mm 3 mps 650 mmHg 75%
    15:00 +20°C° 0 mm 3 mps 649 mmHg 75%
    16:00 +20°C° 0 mm 4 mps 649 mmHg 74%
    17:00 +20°C° 0 mm 4 mps 649 mmHg 74%
    18:00 +19°C° 0.1 mm 3 mps 649 mmHg 80%
    19:00 +18°C° 0.1 mm 3 mps 649 mmHg 87%
    20:00 +16°C° 0.1 mm 3 mps 649 mmHg 94%
    21:00 +16°C° 0.1 mm 3 mps 649 mmHg 94%
    22:00 +16°C° 0.1 mm 3 mps 650 mmHg 95%
    23:00 +16°C° 0.1 mm 3 mps 650 mmHg 95%

    20 February, Wednesday

    Time Temperature Precipitation Wind Pressure Humidity
    00:00 +16°C° 0.2 mm 3 mps 649 mmHg 95%
    01:00 +16°C° 0.2 mm 3 mps 649 mmHg 95%
    02:00 +16°C° 0.2 mm 3 mps 649 mmHg 94%
    03:00 +16°C° 0.2 mm 3 mps 649 mmHg 94%
    04:00 +16°C° 0.2 mm 3 mps 649 mmHg 94%
    05:00 +16°C° 0.2 mm 3 mps 648 mmHg 95%
    06:00 +16°C° 0.3 mm 3 mps 649 mmHg 94%
    07:00 +16°C° 0.3 mm 3 mps 649 mmHg 93%
    08:00 +16°C° 0.3 mm 3 mps 650 mmHg 93%
    09:00 +17°C° 0.2 mm 3 mps 650 mmHg 89%
    10:00 +18°C° 0.2 mm 4 mps 651 mmHg 84%
    11:00 +19°C° 0.2 mm 4 mps 651 mmHg 80%
    12:00 +20°C° 0.1 mm 4 mps 651 mmHg 75%
    13:00 +21°C° 0.1 mm 4 mps 650 mmHg 70%
    14:00 +22°C° 0.1 mm 4 mps 650 mmHg 65%
    15:00 +22°C° 0 mm 4 mps 649 mmHg 64%
    16:00 +22°C° 0 mm 4 mps 649 mmHg 64%
    17:00 +21°C° 0 mm 4 mps 648 mmHg 63%
    18:00 +19°C° 0 mm 4 mps 648 mmHg 72%
    19:00 +18°C° 0 mm 3 mps 648 mmHg 81%
    20:00 +16°C° 0 mm 3 mps 648 mmHg 90%
    21:00 +14°C° 0 mm 3 mps 648 mmHg 92%
    22:00 +14°C° 0 mm 3 mps 649 mmHg 93%
    23:00 +14°C° 0 mm 3 mps 649 mmHg 95%

    21 February, Thursday

    Time Temperature Precipitation Wind Pressure Humidity
    00:00 +14°C° 0.1 mm 3 mps 649 mmHg 95%
    01:00 +14°C° 0.1 mm 3 mps 649 mmHg 95%
    02:00 +16°C° 0.1 mm 2 mps 648 mmHg 95%
    03:00 +16°C° 0.1 mm 3 mps 648 mmHg 95%
    04:00 +16°C° 0.1 mm 3 mps 649 mmHg 94%
    05:00 +16°C° 0.1 mm 3 mps 649 mmHg 94%
    06:00 +16°C° 0 mm 3 mps 649 mmHg 92%
    07:00 +16°C° 0 mm 3 mps 650 mmHg 91%
    08:00 +16°C° 0 mm 3 mps 650 mmHg 90%
    09:00 +18°C° 0 mm 3 mps 651 mmHg 78%
    10:00 +20°C° 0 mm 3 mps 651 mmHg 66%
    11:00 +22°C° 0 mm 4 mps 652 mmHg 55%
    12:00 +23°C° 0 mm 4 mps 652 mmHg 53%
    13:00 +25°C° 0 mm 4 mps 651 mmHg 50%
    14:00 +26°C° 0 mm 4 mps 650 mmHg 48%
    15:00 +25°C° 0 mm 4 mps 650 mmHg 52%
    16:00 +23°C° 0 mm 4 mps 649 mmHg 57%
    17:00 +22°C° 0 mm 4 mps 649 mmHg 62%
    18:00 +20°C° 0.1 mm 4 mps 649 mmHg 72%
    19:00 +19°C° 0.1 mm 4 mps 649 mmHg 82%
    20:00 +17°C° 0.1 mm 3 mps 649 mmHg 92%
    21:00 +17°C° 0.2 mm 3 mps 649 mmHg 93%
    22:00 +17°C° 0.2 mm 3 mps 649 mmHg 94%
    23:00 +17°C° 0.2 mm 3 mps 650 mmHg 95%
    Show more